Regional Weather Roundup
Issued by NWS Wakefield, VA

Home | Current Version | Previous Version | Graphics & Text | Print | Product List | Glossary On
Versions: 1 2 3 4 5 6 7 8 9 10 11 12 13 14 15 16 17 18 19 20 21 22 23 24 25 26 27 28 29 30 31 32 33 34 35 36 37 38 39 40 41 42 43 44 45 46 47 48 49 50
000
ASUS41 KAKQ 301515
RWRAKQ

REGIONAL WEATHER ROUNDUP
NATIONAL WEATHER SERVICE WAKEFIELD VA
1100 AM EDT SAT JUL 30 2016

Note: "fair" indicates few or no clouds below 12,000 feet with no
significant weather and/or obstructions to visibility. * = Denotes
station may not report precipitation (e.g., rain,snow,etc.),
thunder or fog.

VAZ042-051-052>054-056-301600-
NORTHERN VIRGINIA

CITY           SKY/WX    TMP DP  RH WIND       PRES   REMARKS
WASH NATIONAL  PTSUNNY   85  74  69 S9        29.99R
DULLES         PTSUNNY   85  72  65 S13       29.98S
FORT BELVOIR   FAIR      86  73  65 SE9       29.99R
QUANTICO       NOT AVBL
FREDERICKSBRG* RAIN      77  77 100 SW5       30.00R
STAFFORD*      HVY RAIN  75  73  93 S5        30.04R
WARRENTON      CLOUDY    82  69  64 S8        30.00R
CULPEPER*      CLOUDY    81  75  82 S6        30.01R
MANASSAS*      CLOUDY    84  73  70 S10       29.99R
LEESBURG*      CLOUDY    86  75  70 S16G24    29.99S HX  95
WINCHESTER     CLOUDY    81  72  74 S6        29.98S
FRONT ROYAL*   FAIR      81  72  74 CALM      29.97S
LURAY*         NOT AVBL
$$

VAZ048-049-060>072-079>083-301600-
CENTRAL AND SOUTH CENTRAL VIRGINIA

CITY           SKY/WX    TMP DP  RH WIND       PRES   REMARKS
RICHMOND       CLOUDY    82  74  76 S6        29.99R
CHESTERFIELD*  CLOUDY    82  66  57 S3        30.01R
PETERSBURG*    FAIR      85  76  74 SE5       30.00S
HANOVER        LGT RAIN  81  74  79 SW6       30.02R
TAPPAHANNOCK*  FAIR      85  75  72 SE7       30.00
QUINTON*       FAIR      84  75  74 SE3       29.98S
CHARLOTTSVILLE FAIR      84  71  65 S7        30.00S
GORDONSVILLE*  FAIR      80  74  83 SW8       30.00S
ORANGE*          N/A     82  77  83 S7        30.02S
LOUISA*        FAIR      79  77  94 S5        30.00S
BUMPASS*       CLOUDY    75  74  98 CALM      30.02S
FARMVILLE*     CLOUDY    82  76  82 E5        30.00S
CREWE*         NOT AVBL
FORT PICKETT*  CLOUDY    78  78  98 N3        30.02R
CHASE CITY*    CLOUDY    85  77  77 SE3       30.00R HX  96
CLARKSVILLE*   CLOUDY    82  77  83 S3        29.99S
SOUTH HILL*    PTSUNNY   83  76  78 S5        30.05S
LAWRENCEVILLE* CLOUDY    80  78  95 E3        30.00S
EMPORIA*       FAIR      82  75  78 E6        30.01R
$$

VAZ088>098-301600-
SOUTHEAST VIRGINIA

CITY           SKY/WX    TMP DP  RH WIND       PRES   REMARKS
NORFOLK        FAIR      86  73  65 N12       29.99S
VIRGINIA BEACH PTSUNNY   89  74  60 E9        30.00R HX  98
NORFOLK NAVAL  PTSUNNY   88  74  63 E8        30.01R HX  96
WEST POINT*    FAIR      85  72  65 SE7       30.01R
SALUDA*        FAIR      83  75  76 SE7       30.00R
NEWPORT NEWS   PTSUNNY   86  73  65 SE7G16    29.99F
LANGLEY AFB    FAIR      86  73  64 E8        30.00R
FORT EUSTIS    FAIR      86  74  67 S7        29.98S
WILLIAMSBURG*  FAIR      90  75  62 SE8       30.00S HX 100
HR EXEC AP*    FAIR      88  73  62 S5        30.01S HX  96
FRANKLIN*      FAIR      85  74  71 SE5       29.99F
US460-WAKEFLD  FAIR      84  74  71 VRB6      29.99S
$$

VAZ020-022-025-037-045-301600-
WEST CENTRAL AND SOUTHWEST VIRGINIA

CITY           SKY/WX    TMP DP  RH WIND       PRES   REMARKS
STAUNTON*      FAIR      82  71  69 S8        30.03S
WAYNESBORO*    FAIR      83  70  66 S6        30.03S
HOT SPRINGS VA CLOUDY    72  68  88 W8        30.15R
LYNCHBURG      PTSUNNY   80  74  81 CALM      30.03S
DANVILLE       CLOUDY    83  74  74 W5        30.00R
SOUTH BOSTON*  FAIR     N/A N/A N/A S3        29.99S
MARTINSVILLE   FAIR      82  70  66 CALM      30.05R
ROANOKE        FAIR      80  71  74 SW5       30.05S
BLACKSBURG     FAIR      77  70  80 W3        30.13S
DUBLIN*        FAIR      78  70  74 S3        30.10F
MARION*        CLOUDY    73  69  87 W8        30.15R
HILLSVILLE*    FAIR      75  68  78 N8        30.12S
RICHLANDS*     DRIZZLE   69  69 100 SW7       30.12S
WISE*          CLOUDY    73  70  88 SW8       30.13F
ABINGDON*      PTSUNNY   74  72  94 W7        30.11S
$$

MDZ021>025-VAZ099-100-301600-
SOUTHERN MARYLAND AND THE DELMARVA PENINSULA

CITY           SKY/WX    TMP DP  RH WIND       PRES   REMARKS
PATUXENT RIVER PTSUNNY   84  73  69 SE12      29.99R
BAY BRIDGE APT CLOUDY    84  75  74 S7        29.98S
LEONARDTOWN      N/A     82  72  69 MISG        N/A
DOVER          CLOUDY    85  83  93 SE7       29.98S HX 103
GEORGETOWN     MOSUNNY   85  72  65 S10       30.01S
EASTON         SUNNY     86  77  74 S9        30.03R HX  97
CAMBRIDGE      MOSUNNY   82  70  65 S7        29.99S
SALISBURY      MOSUNNY   84  72  65 SE8       30.00S
OCEAN CITY     SUNNY     83  73  72 SE6       30.01S
WALLOPS ISLAND FAIR      85  71  63 SE8       30.01S
ACCOMACK*      FAIR      84  72  65 CALM      30.01R
$$

NCZ012>017-030>032-301600-
NORTH CENTRAL AND EASTERN NORTH CAROLINA

CITY           SKY/WX    TMP DP  RH WIND       PRES   REMARKS
ROANOKE RAPIDS FAIR      84  77  79 CALM      29.99R
RALEIGH        CLOUDY    87  73  62 SW8       29.99S
ELIZABETH CITY SUNNY     88  72  58 MISG      30.00R
AHOSKIE*       CLOUDY    86  75  71 S5        29.99S
EDENTON*       SUNNY     89  72  57 SE6       30.00R HX  96
CURRITUCK*     SUNNY     86  74  68 NE7       30.01R
KILL DEVIL HLS SUNNY     89  80  74 E5        29.99S HX 107
MANTEO         SUNNY     85  76  74 E6        30.00S HX  95
CAPE HATTERAS  CLOUDY    87  78  74 SE9       30.01R HX 100
TARBORO*       PTSUNNY   84  80  86 SE3       29.99S HX  97
GOLDSBORO      MOSUNNY   91  76  61 VRB7      29.96F HX 102
WASHINGTON     CLOUDY    87  78  74 SE6       29.99S HX 100
GREENVILLE     CLOUDY    88  79  74 S9        30.00S HAZE    HX 102
NEW BERN       MOSUNNY   89  78  70 CALM      30.00S HX 103
WILMINGTON     SUNNY     93  78  61 VRB7      29.99R HX 108
$$

VAZ048-301600-
ELSEWHERE

CITY           SKY/WX    TMP DP  RH WIND       PRES   REMARKS
HARRISBURG PA  LGT RAIN  80  75  84 SE5       29.97F
BALTIMORE      CLOUDY    84  72  67 S6        29.98S
ANNAPOLIS      CLOUDY     0   0 100 CALM      29.98S
ANDREWS AFB    FAIR      84  74  72 S9        29.99R
PHILADELPHIA   CLOUDY    84  74  71 SW3       30.00R
GREENSBORO     MOSUNNY   88  69  53 VRB7      30.01R
ROCKY MOUNT    CLOUDY    84  78  82 S3        29.99R HX  95
$$

VAZ100-301600-
MARINE

STATION/POSITION TIME  TEMP    WIND        PRES    WAVE   SWELL
                       AIR SEA DIR/SP/G            HT/PER HT/PER
                 (UTC) (F)     (DEG/KT/KT) (MB)    (FT/S) (FT/S)
BRANDYWINE LGT   1400   76     170/  7/  7   N/A
CAPE MAY NJ      1400   80 73  220/  5/  6 1015.7F
LEWES DE         1400   82 75  170/  4/  6 1015.8F
OCEAN-CITY-INLET 1400   80 74  190/  4/  5 1016.5S
WACHAPREAGUE VA  1400   82 84  140/  5/  7 1015.8S
THOMAS POINT MD  1500   83 83  170/ 14/ 15 1016.7R
GOOSES REEF MD   1400   84 84  170/ 10/ 12 1015.9F   1/ 2
COVE POINT MD    1400   82     190/ 11/ 12 1015.8F
SOLOMONS ISLAND  1400   83 85  150/  9/ 10   N/A
BISHOPS HEAD MD  1400   82     150/  9/ 11 1015.8F
PINEY POINT MD   1400          180/  8/  9   N/A
POTOMAC MD       1400   82 85  170/  8/ 10 1014.5F   1
CAMBRIDGE MD     1400   84 87  160/  3/  6 1014.6F
LEWISETTA VA     1400   83 86  160/  7/  9 1015.0F
RAPPAHANNOCK LGT 1400          130/  5/  6 1016.3F
STINGRAY PT      1400   83 86  100/  8/ 10 1016.0F   1
YORK RVR RNG VA  1400   82     160/  8/  9 1015.2S
YORKTOWN VA      1400   84 84  120/  4/  6 1015.2F
JAMESTOWN VA     1400   83 89  130/  6/  8   N/A     0
DOMINION TERM VA 1400   83     120/  3/  4 1015.7F
KIPTOPEKE VA     1400      79  160/  7/  8   N/A
CHES BAY BRIDGE  1400   80 73   70/  8/  8 1015.6S
CAPE HENRY VA    1400   80     100/  7/  8   N/A
WILLOUBY STN VA  1400   82      80/  7/  8   N/A
CAPE HENRY BUOY  1412      81                N/A     2/ 7
1ST LANDING BUOY 1400   81 82  130/  8/  8 1015.5R   1/ 4
CAPE CHARLES BUO 1426      77                N/A     2/ 7
OFFSHORE WE BUOY 1421      82                N/A     3/ 7
64NM E OF VA BCH 1450   81 83   80/  8/ 10 1016.1R   3/ 7   3/ 7
DUCK PIER NC     1400   86 75  100/  4/  4 1015.1S
44100 DUCK FRF   1405      83                N/A     2/ 7
44056 DUCK FRF   1411      81                N/A     2/ 8
OREGON INLET NC  1400   82 77   40/  5/  7 1015.5S
HATTERAS NC      1400   84 83  100/  7/  9 1015.2R
DIAMOND SHLS NC  1450   85 86  160/  6/  8 1016.0R   2/ 6   2/ 6
CAPE LOOKOUT NC  1500   82     130/  5/  5 1015.6R
$$



USA.gov is the U.S. government's official web portal to all federal, state and local government web resources and services.